Total_Precipitation_Accumulation
0.07 0.06 0.06 0.05 0.04 0.03 0.02 0.02 0.02 0.01 0.01 0.01 0.00 0.00 0.00 0.00 0.00 0.01 0.02 0.02 0.03 0.04 0.05 0.06 0.07 0.07 0.08 0.07 0.07 0.08 0.09 0.13 0.17 0.09 0.04 0.04 0.06 0.08 0.11 0.14 0.14 0.12 0.11
0.06 0.05 0.04 0.04 0.03 0.02 0.02 0.01 0.01 0.01 0.01 0.01 0.01 0.00 0.00 0.00 0.01 0.02 0.03 0.03 0.05 0.05 0.05 0.05 0.05 0.06 0.08 0.07 0.06 0.06 0.08 0.12 0.20 0.18 0.11 0.08 0.08 0.10 0.12 0.13 0.10 0.09 0.11
0.04 0.03 0.02 0.02 0.01 0.01 0.01 0.01 0.01 0.01 0.01 0.01 0.01 0.01 0.01 0.01 0.02 0.03 0.04 0.04 0.04 0.03 0.03 0.03 0.04 0.05 0.06 0.05 0.06 0.08 0.09 0.12 0.17 0.20 0.13 0.10 0.08 0.07 0.12 0.14 0.14 0.15 0.10
0.02 0.02 0.01 0.01 0.01 0.01 0.01 0.01 0.01 0.01 0.01 0.01 0.01 0.01 0.01 0.02 0.02 0.02 0.02 0.01 0.01 0.01 0.01 0.02 0.03 0.05 0.07 0.09 0.09 0.09 0.11 0.13 0.14 0.16 0.13 0.09 0.08 0.07 0.13 0.21 0.20 0.15 0.12
0.02 0.02 0.02 0.02 0.01 0.01 0.02 0.02 0.01 0.01 0.01 0.01 0.01 0.01 0.01 0.01 0.01 0.00 0.00 0.00 0.00 0.01 0.01 0.02 0.03 0.05 0.10 0.12 0.13 0.12 0.14 0.16 0.17 0.19 0.17 0.13 0.09 0.10 0.16 0.21 0.21 0.14 0.10
0.05 0.05 0.04 0.04 0.04 0.03 0.03 0.02 0.02 0.02 0.01 0.01 0.01 0.00 0.00 0.00 0.00 0.00 0.00 0.00 0.00 0.01 0.02 0.03 0.02 0.03 0.05 0.07 0.08 0.12 0.17 0.20 0.23 0.24 0.22 0.15 0.09 0.13 0.21 0.27 0.27 0.22 0.16
0.09 0.09 0.09 0.08 0.07 0.05 0.03 0.02 0.01 0.01 0.01 0.00 0.00 0.00 0.00 0.00 0.00 0.00 0.00 0.00 0.01 0.03 0.04 0.04 0.03 0.03 0.05 0.06 0.07 0.07 0.08 0.14 0.24 0.31 0.29 0.18 0.15 0.21 0.32 0.36 0.30 0.26 0.22
0.15 0.14 0.10 0.08 0.06 0.04 0.02 0.01 0.01 0.00 0.00 0.00 0.00 0.00 0.01 0.01 0.00 0.00 0.00 0.01 0.02 0.03 0.04 0.05 0.06 0.07 0.07 0.07 0.06 0.05 0.07 0.12 0.22 0.27 0.29 0.26 0.28 0.33 0.40 0.41 0.34 0.28 0.21
0.14 0.10 0.06 0.04 0.02 0.01 0.01 0.00 0.00 0.00 0.01 0.01 0.00 0.01 0.01 0.02 0.00 0.00 0.00 0.01 0.01 0.01 0.02 0.02 0.05 0.06 0.08 0.10 0.08 0.08 0.10 0.15 0.24 0.37 0.43 0.48 0.52 0.50 0.44 0.38 0.37 0.34 0.30
0.05 0.03 0.02 0.01 0.00 0.00 0.00 0.00 0.00 0.01 0.00 0.00 0.00 0.01 0.02 0.04 0.01 0.00 0.01 0.01 0.02 0.01 0.01 0.01 0.04 0.07 0.10 0.10 0.09 0.12 0.17 0.23 0.39 0.55 0.61 0.64 0.57 0.50 0.47 0.41 0.40 0.41 0.41
0.01 0.01 0.00 0.00 0.00 0.00 0.00 0.00 0.00 0.00 0.01 0.00 0.01 0.01 0.03 0.03 0.01 0.00 0.01 0.02 0.03 0.04 0.05 0.06 0.07 0.12 0.13 0.11 0.12 0.17 0.28 0.41 0.60 0.75 0.71 0.56 0.43 0.34 0.31 0.32 0.32 0.35 0.40
0.00 0.00 0.00 0.00 0.00 0.00 0.00 0.00 0.00 0.01 0.01 0.01 0.01 0.01 0.02 0.02 0.02 0.01 0.00 0.01 0.03 0.06 0.10 0.11 0.14 0.19 0.16 0.15 0.19 0.30 0.41 0.57 0.67 0.72 0.60 0.44 0.34 0.28 0.26 0.24 0.24 0.26 0.30
0.00 0.00 0.00 0.00 0.00 0.00 0.00 0.00 0.00 0.00 0.01 0.01 0.01 0.01 0.01 0.02 0.02 0.01 0.01 0.01 0.03 0.07 0.13 0.21 0.23 0.22 0.22 0.26 0.36 0.48 0.55 0.58 0.65 0.59 0.45 0.38 0.33 0.27 0.23 0.22 0.21 0.22 0.25
0.00 0.01 0.02 0.02 0.01 0.00 0.00 0.00 0.00 0.01 0.01 0.01 0.02 0.02 0.03 0.02 0.03 0.03 0.03 0.03 0.06 0.08 0.14 0.24 0.33 0.35 0.37 0.42 0.47 0.53 0.53 0.61 0.61 0.44 0.33 0.31 0.28 0.24 0.23 0.21 0.20 0.21 0.24
0.01 0.01 0.02 0.01 0.00 0.00 0.00 0.00 0.00 0.01 0.01 0.02 0.03 0.03 0.05 0.05 0.04 0.06 0.07 0.08 0.11 0.15 0.16 0.22 0.28 0.33 0.39 0.42 0.42 0.45 0.46 0.45 0.45 0.37 0.31 0.27 0.25 0.23 0.23 0.22 0.20 0.19 0.21
0.01 0.01 0.01 0.00 0.01 0.00 0.01 0.01 0.01 0.00 0.00 0.01 0.02 0.03 0.04 0.05 0.05 0.04 0.05 0.09 0.13 0.17 0.18 0.26 0.38 0.45 0.49 0.50 0.46 0.45 0.44 0.39 0.37 0.34 0.31 0.28 0.25 0.24 0.24 0.22 0.21 0.20 0.22
0.00 0.00 0.00 0.00 0.00 0.00 0.01 0.02 0.04 0.03 0.01 0.01 0.01 0.02 0.03 0.04 0.04 0.03 0.04 0.07 0.10 0.14 0.16 0.29 0.44 0.56 0.59 0.54 0.47 0.44 0.47 0.47 0.44 0.40 0.32 0.28 0.25 0.23 0.21 0.21 0.20 0.20 0.20
0.00 0.00 0.00 0.01 0.00 0.00 0.01 0.02 0.04 0.06 0.06 0.06 0.03 0.01 0.02 0.03 0.05 0.04 0.05 0.05 0.07 0.11 0.21 0.34 0.46 0.53 0.55 0.55 0.49 0.46 0.49 0.51 0.47 0.40 0.33 0.30 0.25 0.20 0.18 0.19 0.19 0.17 0.15
0.00 0.00 0.00 0.00 0.00 0.00 0.01 0.02 0.04 0.05 0.06 0.05 0.04 0.02 0.02 0.04 0.05 0.07 0.07 0.06 0.10 0.17 0.25 0.34 0.42 0.43 0.41 0.42 0.40 0.39 0.42 0.46 0.43 0.36 0.32 0.29 0.24 0.20 0.19 0.17 0.14 0.12 0.10
0.00 0.00 0.00 0.00 0.00 0.00 0.00 0.01 0.03 0.04 0.05 0.06 0.05 0.03 0.03 0.05 0.06 0.09 0.08 0.08 0.10 0.15 0.23 0.31 0.38 0.36 0.31 0.29 0.27 0.27 0.29 0.31 0.30 0.28 0.25 0.23 0.21 0.20 0.18 0.15 0.12 0.09 0.08
0.00 0.00 0.00 0.00 0.00 0.00 0.00 0.00 0.02 0.03 0.04 0.05 0.05 0.05 0.08 0.07 0.10 0.13 0.16 0.18 0.18 0.18 0.20 0.23 0.27 0.30 0.28 0.24 0.21 0.19 0.19 0.20 0.21 0.21 0.20 0.20 0.19 0.17 0.14 0.10 0.07 0.05 0.05
0.00 0.00 0.00 0.00 0.00 0.00 0.00 0.00 0.00 0.01 0.03 0.03 0.04 0.05 0.09 0.08 0.10 0.13 0.20 0.25 0.27 0.26 0.23 0.21 0.20 0.23 0.26 0.26 0.20 0.16 0.16 0.17 0.18 0.18 0.18 0.18 0.17 0.14 0.10 0.07 0.04 0.03 0.03
0.00 0.00 0.00 0.00 0.00 0.00 0.00 0.00 0.00 0.00 0.01 0.02 0.04 0.05 0.05 0.07 0.10 0.14 0.19 0.25 0.28 0.27 0.23 0.20 0.20 0.23 0.25 0.25 0.21 0.16 0.14 0.14 0.14 0.15 0.16 0.17 0.15 0.11 0.07 0.04 0.03 0.02 0.01
0.00 0.00 0.00 0.00 0.00 0.00 0.00 0.00 0.00 0.00 0.00 0.01 0.02 0.04 0.06 0.08 0.09 0.13 0.17 0.22 0.25 0.27 0.26 0.25 0.25 0.25 0.24 0.23 0.20 0.13 0.10 0.11 0.11 0.12 0.13 0.13 0.12 0.09 0.05 0.03 0.02 0.01 0.01
0.00 0.00 0.00 0.00 0.00 0.00 0.00 0.00 0.00 0.00 0.00 0.00 0.00 0.01 0.02 0.04 0.07 0.09 0.12 0.16 0.19 0.22 0.22 0.22 0.23 0.22 0.19 0.17 0.14 0.10 0.09 0.10 0.11 0.11 0.11 0.11 0.10 0.08 0.05 0.03 0.02 0.02 0.01
0.00 0.00 0.00 0.00 0.00 0.00 0.00 0.00 0.00 0.00 0.00 0.00 0.00 0.00 0.01 0.01 0.03 0.05 0.06 0.07 0.09 0.13 0.17 0.18 0.19 0.16 0.12 0.08 0.07 0.07 0.07 0.05 0.04 0.05 0.08 0.11 0.10 0.07 0.05 0.04 0.02 0.01 0.01